Overview Statistics Trail Chart Weather Telemetry Raw packets
 

This is the latest recevied weather packets stored in our database for station/object 4S6DRJ-13. If no packets are shown the sender has not sent any weather packets the latest 10 day(s).

<< 258 259 260 261 262 263 264 >>
Time Temp. Humidity Pressure Rain* Wind** Luminosity Snow
1788088503 30.56° C 73% 1008 hPa 0 mm 0.89 m/s, 258° 163 W/m² -
1788088442 30.56° C 73% 1007.9 hPa 0 mm 2.24 m/s, 283° 164 W/m² -
1788088381 30.56° C 73% 1007.9 hPa 0 mm 2.24 m/s, 288° 141 W/m² -
1788088321 30.56° C 72% 1007.9 hPa 0 mm 2.24 m/s, 249° 157 W/m² -
1788088260 30.56° C 72% 1008 hPa 0 mm 1.79 m/s, 248° 256 W/m² -
1788088199 30.56° C 72% 1007.9 hPa 0 mm 1.34 m/s, 307° 332 W/m² -
1788088137 30.56° C 72% 1007.8 hPa 0 mm 2.24 m/s, 21° 261 W/m² -
1788088076 30.56° C 72% 1007.8 hPa 0 mm 2.68 m/s, 261° 353 W/m² -
1788088015 30.56° C 71% 1007.9 hPa 0 mm 2.68 m/s, 209° 392 W/m² -
1788087954 30.56° C 72% 1007.9 hPa 0 mm 1.79 m/s, 238° 256 W/m² -
1788087894 30.56° C 72% 1007.9 hPa 0 mm 0.89 m/s, 307° 447 W/m² -
1788087832 30.56° C 72% 1008 hPa 0 mm 0.45 m/s, 157° 243 W/m² -
1788087771 30.56° C 71% 1008.2 hPa 0 mm 2.24 m/s, 207° 205 W/m² -
1788087710 31.11° C 71% 1007.9 hPa 0 mm 1.34 m/s, 206° 176 W/m² -
1788087650 31.11° C 71% 1007.9 hPa 0 mm 1.79 m/s, 285° 169 W/m² -
1788087588 31.11° C 71% 1008 hPa 0 mm 0.89 m/s, 213° 170 W/m² -
1788087528 31.11° C 70% 1007.9 hPa 0 mm 1.34 m/s, 15° 444 W/m² -
1788087405 30.56° C 71% 1007.8 hPa 0 mm 0.89 m/s, 341° 444 W/m² -
1788087344 30.56° C 72% 1007.9 hPa 0 mm 0.89 m/s, 215° 466 W/m² -
1788087283 30.56° C 72% 1008.1 hPa 0 mm 0.89 m/s, 268° 497 W/m² -
1788087222 30.56° C 72% 1007.9 hPa 0 mm 1.34 m/s, 192° 509 W/m² -
1788087161 30° C 73% 1007.9 hPa 0 mm 0.45 m/s, 213° 536 W/m² -
1788087101 30° C 72% 1008 hPa 0 mm 1.34 m/s, 119° 505 W/m² -
1788087039 30° C 72% 1007.9 hPa 0 mm 0.89 m/s, 305° 286 W/m² -
1788086978 30.56° C 72% 1008 hPa 0 mm 0.89 m/s, 238° 208 W/m² -

* Rain latest hour (hover to see other rain measurements)
** Current wind speed in m/s (hover to see current wind gust speed)